Погода в Виловатом

Россия / Самарская область     53°01′44″N   51°26′48″E
темп.,
°C
ветер,
м/с
пор.,
м/с
влажн.,
%
обл.,
%
осадки,
мм/ч
давл.,
гПа
погр.,
м
16 сентября, чт
чт1601:00+8з38695 0.0 1009194
04:00+7зсз34785 0.0 100961
07:00+8зсз3572100 0.0 1010200
10:00+11сз3460100 0.0 1010666
13:00+12сз4753100 0.0 10111644
16:00+13сз5848100 0.0 10101792
19:00+11ссз485388 0.0 1011620
22:00+9ссз5856100 0.0 1012805
17 сентября, пт
пт1701:00+8сз4857100 0.0 1013641
04:00+8сз5970100 0.0 1013582
07:00+8сз4972100 0.0 1014550
10:00+10сз5754100 0.1 10151196
13:00+10сз5646100 0.0 10151672
16:00+10зсз5646100 0.0 10161622
19:00+9сз3552100 0.0 1016208
22:00+8зсз245894 0.0 1016122
18 сентября, сб
сб1801:00+7зсз3462100 0.0 1016106
04:00+6зсз366899 0.0 1016177
07:00+4сз377041 0.0 1018214
10:00+9сз57485 0.0 10181420
13:00+12сз673791 0.0 10182084
16:00+11ссз774537 0.0 10191629
19:00+6ссз376436 0.0 1021152
22:00+8ссз5752100 0.0 1022861
19 сентября, вс
вс1901:00+5ссз36676 0.0 1023163
04:00+2сз337516 0.0 102448
07:00+3зсз3667100 0.0 1025143
10:00+8ссз455440 0.0 1025881
13:00+11сз45384 0.0 10251300
16:00+12ссз44335 0.0 10251368
19:00+7с224762 0.0 102617
22:00+5св2255100 0.0 102610
20 сентября, пн
пн2001:00+4св226099 0.0 102710
04:00+4всв2262100 0.0 102714
07:00+3в346672 0.0 102764
10:00+10вюв444471 0.0 1027672
13:00+13вюв443186 0.0 10271243
16:00+14вюв4428100 0.0 10261323
19:00+12всв3636100 0.0 1026141
22:00+10в3742100 0.0 1027217